Theta_e
341 340 341 343 343 344 346 349 349 346 344 344 343 343 343 343 342 343 343 343 342 343 344 345 345 345 346 348 348 347 348 348 346 344 346 347 345 346 345 341 341 339 339 340 335 327 330 334 332 331 333 334 334 336 337 338 341 341 341 340 340 339 337 337 336 336 336 336 336 336 337 337 338 339 340 340 339 337 338 338 338 337 337 338 338
342 342 342 342 343 343 344 347 349 347 345 343 342 341 342 343 343 344 344 343 343 344 345 345 345 345 345 346 347 347 349 349 347 346 346 346 346 346 347 343 340 341 339 338 337 332 330 332 332 331 332 333 334 336 336 337 339 340 341 341 340 339 338 339 338 336 336 336 336 335 335 336 337 338 337 338 337 337 336 337 336 336 336 337 337
343 343 342 342 342 343 343 345 347 348 347 345 344 343 343 343 343 343 344 344 344 344 345 346 345 345 344 344 345 347 348 349 348 348 347 346 347 346 347 346 342 342 341 338 337 336 334 333 332 331 331 331 332 334 335 336 337 338 340 341 341 339 339 341 339 338 337 336 335 335 335 335 335 335 335 336 336 336 336 335 335 335 336 336 335
345 345 345 344 343 342 343 343 345 347 347 345 345 346 345 344 343 343 343 345 344 344 344 346 346 344 343 344 344 346 347 348 348 348 347 346 347 347 346 347 345 343 343 340 338 338 337 337 336 336 335 333 332 332 334 335 335 336 338 339 340 340 339 341 341 339 339 338 337 336 334 334 334 334 335 335 335 335 335 334 335 335 335 334 334
346 347 348 348 347 344 341 340 341 344 346 346 346 347 347 346 345 343 343 345 345 345 345 345 344 343 343 344 344 344 344 346 346 346 347 346 346 348 346 346 345 345 345 342 340 339 339 339 340 341 340 338 336 335 334 335 335 335 336 337 339 340 339 341 342 341 340 338 337 337 336 335 335 334 334 334 335 335 334 333 333 334 333 332 332
348 347 348 349 350 348 343 339 338 342 346 347 346 347 347 346 345 343 343 344 345 345 344 343 343 342 343 343 344 344 344 343 344 345 345 345 346 347 347 345 344 346 348 345 341 340 339 339 339 340 341 342 340 339 338 337 336 336 336 337 338 339 339 340 341 341 341 339 339 338 337 337 336 335 335 335 335 335 334 333 332 332 332 332 333
351 347 347 349 351 351 345 339 336 339 344 347 347 347 347 346 344 344 344 344 345 345 344 343 342 342 342 343 343 344 345 345 344 345 345 345 345 346 347 346 344 345 347 347 343 341 340 339 339 339 340 341 341 341 340 340 340 339 337 337 338 338 339 339 340 341 341 340 339 338 338 338 338 337 336 336 336 336 335 334 334 334 332 332 332
354 348 347 349 350 351 348 341 337 339 343 346 348 347 347 346 344 344 344 344 345 344 343 342 342 341 341 341 341 342 346 347 346 345 345 346 344 345 347 347 345 344 345 345 343 341 340 339 339 339 340 340 340 340 340 341 341 341 340 339 339 339 339 339 339 340 341 340 339 339 338 338 338 337 336 336 337 336 336 336 336 335 335 334 333
353 350 350 350 351 351 350 346 341 340 343 346 348 348 347 347 345 344 344 343 343 344 343 342 342 341 341 340 339 341 345 347 347 346 345 345 345 345 346 346 346 345 344 343 341 338 336 337 337 338 341 340 339 339 339 340 340 341 342 341 340 339 339 339 339 340 340 339 339 339 338 337 337 336 335 335 335 336 337 337 337 337 337 336 334
352 352 352 352 352 352 352 350 345 343 345 347 348 349 348 347 346 345 344 343 342 343 342 342 341 341 341 341 339 340 342 344 346 347 346 345 346 345 345 346 346 346 346 345 343 338 335 336 336 337 339 341 340 339 339 339 338 339 341 342 342 341 340 340 340 340 339 338 339 339 337 336 335 334 334 333 334 334 335 336 336 337 336 336 335
355 354 354 353 353 352 353 353 349 346 347 348 349 349 349 348 347 345 344 343 343 343 343 341 340 340 341 342 340 339 339 339 343 346 347 346 346 347 345 345 346 346 347 347 346 345 342 341 341 340 340 341 341 340 340 340 339 338 339 340 342 342 342 340 340 340 340 340 338 337 336 335 335 334 333 333 333 332 333 333 334 335 335 336 335
354 355 354 353 352 352 353 354 351 348 348 348 348 348 348 348 347 345 345 344 344 344 343 342 341 340 341 342 341 340 339 338 339 343 346 347 347 349 348 346 345 345 346 346 346 345 345 345 345 344 343 344 344 344 343 343 342 341 339 339 340 341 343 343 343 342 342 341 340 339 336 335 335 335 334 333 333 333 333 333 334 336 337 337 338
351 353 355 353 352 353 354 354 351 348 346 346 346 346 346 346 346 346 345 345 345 345 344 343 342 341 342 342 341 340 340 339 338 340 343 345 347 348 349 348 347 346 345 346 346 344 343 343 344 344 345 345 347 347 348 347 347 346 344 343 342 342 343 343 344 344 344 343 342 341 339 338 337 337 337 336 336 336 336 337 338 339 339 340 340
350 351 355 354 352 354 354 353 351 348 346 346 347 346 345 345 346 345 345 345 345 345 345 343 341 341 341 339 338 339 339 339 338 339 340 343 345 346 347 348 349 349 348 347 346 344 343 342 342 342 343 344 346 347 349 349 349 348 348 347 346 345 344 344 345 345 345 346 344 344 343 342 340 340 340 339 340 340 340 341 342 342 341 341 341
353 353 354 354 353 353 353 352 351 349 348 348 348 347 345 344 344 345 345 345 345 345 344 344 342 342 342 340 339 341 343 342 341 339 338 340 343 345 345 346 348 349 349 348 347 345 344 343 343 342 343 344 344 345 347 347 347 347 347 347 347 347 346 345 345 345 345 346 346 346 346 344 343 342 341 341 342 342 343 343 343 343 343 342 342
352 352 352 352 352 352 353 352 351 349 348 349 349 347 345 345 345 345 345 346 345 345 344 344 344 343 343 342 342 344 347 344 342 341 338 339 341 342 343 345 346 348 348 348 348 347 346 345 345 344 344 345 344 344 345 345 345 345 345 346 346 347 346 346 345 345 345 346 346 347 347 346 346 345 343 342 342 342 342 342 342 342 342 342 341
350 350 350 350 350 351 351 350 350 350 350 350 348 347 347 347 347 347 346 346 346 345 345 344 344 345 344 344 344 347 348 344 343 344 341 340 340 338 338 341 345 347 347 346 346 346 347 347 347 347 347 347 346 346 346 346 346 347 347 347 346 347 347 347 346 346 345 345 345 346 347 347 347 347 346 345 344 343 343 342 342 341 341 341 341
348 348 349 350 351 350 349 349 349 349 350 350 349 348 349 348 349 349 347 347 346 345 345 345 345 345 345 345 345 345 345 344 345 348 345 342 340 340 339 339 341 345 346 345 344 344 344 346 346 347 348 349 349 349 348 349 348 349 349 348 348 348 348 348 347 347 347 347 347 347 347 347 347 348 349 348 347 346 346 345 344 344 343 343 342
346 347 349 350 350 349 348 348 349 348 348 350 350 349 350 350 350 350 349 348 347 346 346 345 345 345 345 345 344 342 342 344 346 348 350 348 343 341 342 341 342 343 344 345 344 343 342 343 344 345 346 346 348 349 349 349 349 349 349 349 349 349 349 348 349 349 349 349 349 349 349 349 349 349 348 349 348 347 347 346 346 346 346 345 345
345 347 349 350 348 347 346 346 347 348 348 349 349 349 350 350 349 349 349 347 345 345 346 346 346 346 345 345 344 343 341 342 344 345 348 351 348 344 344 343 344 344 343 344 343 343 342 341 342 343 345 345 346 346 346 347 347 347 348 348 349 349 349 349 349 349 349 349 349 349 349 349 349 349 349 349 348 347 347 346 346 347 346 347 347
345 346 347 347 346 347 347 346 348 348 348 348 347 348 350 350 350 350 350 348 346 346 347 347 347 346 346 346 345 344 340 339 342 342 342 346 349 347 345 344 346 346 344 344 343 343 341 340 339 340 342 344 343 344 343 344 345 345 346 347 348 349 349 349 349 350 350 350 350 350 349 349 349 349 349 349 348 348 348 348 348 348 348 348 349
344 345 345 346 346 347 348 348 350 348 347 348 347 347 349 350 350 350 349 350 349 350 350 349 348 347 347 346 345 343 339 338 340 342 341 343 346 346 343 343 346 345 344 345 344 344 343 341 341 340 340 342 342 342 343 344 346 347 346 347 347 347 349 349 349 349 350 350 350 350 350 350 350 350 350 350 350 349 349 349 349 350 350 350 350
342 343 344 344 345 345 344 344 345 347 347 349 348 348 348 347 347 348 348 349 349 350 350 350 348 348 346 346 346 344 341 339 341 343 343 343 344 344 342 343 344 343 342 344 344 345 346 345 345 343 342 341 341 342 342 344 346 347 348 348 348 347 348 348 349 349 349 350 350 350 350 350 351 351 351 350 351 350 349 349 349 350 351 351 350
340 341 342 343 342 341 340 338 338 341 343 344 345 344 344 344 345 346 346 347 348 348 349 349 348 347 347 346 346 345 343 342 343 343 343 343 343 343 342 342 343 343 342 343 343 344 346 346 346 345 345 344 343 343 343 344 346 347 347 348 348 348 348 347 347 348 349 349 349 350 350 350 351 352 352 352 351 351 350 350 348 349 350 350 350
340 341 341 341 341 339 338 337 337 339 339 339 339 338 338 340 340 342 343 343 345 347 347 347 347 346 346 346 345 344 343 343 343 343 343 343 343 342 341 342 343 342 342 343 344 345 345 345 345 345 345 345 344 344 345 345 346 346 346 346 346 347 347 347 347 347 348 348 349 350 350 350 351 352 352 352 352 352 351 351 350 349 350 350 350
339 340 340 340 340 340 339 338 338 339 339 338 338 337 337 338 339 341 342 343 344 346 345 344 344 342 343 344 344 343 343 343 343 342 342 342 342 343 342 343 342 342 343 345 345 346 346 346 345 345 345 345 344 344 345 345 345 345 345 345 345 345 345 345 345 346 346 347 348 348 349 350 351 351 351 352 352 353 352 351 351 350 350 350 350
338 339 339 340 339 340 340 339 340 339 339 338 337 337 337 337 339 340 342 343 344 345 344 342 341 340 342 343 343 342 342 343 343 342 342 341 341 343 343 344 345 344 345 346 346 346 346 346 347 346 346 346 346 346 345 345 345 344 345 346 345 345 344 344 345 345 345 346 346 347 347 349 349 350 351 352 352 352 351 350 351 350 350 349 350
338 338 339 339 339 339 340 340 340 339 338 338 338 338 339 338 339 339 339 340 343 344 342 341 340 339 341 342 342 342 341 341 342 342 342 341 342 342 343 344 345 346 347 347 346 346 346 346 347 347 347 347 346 345 345 345 344 344 345 346 346 346 346 346 346 346 346 347 346 346 347 348 349 350 350 351 350 350 350 350 351 351 350 350 350
336 337 336 337 336 337 337 338 337 337 336 336 337 339 339 339 339 339 338 338 341 342 341 340 340 339 340 340 340 341 340 341 341 342 342 342 342 343 343 343 344 346 347 347 346 345 346 347 347 347 346 346 345 345 344 344 343 344 346 347 347 347 347 347 348 348 348 348 348 349 349 348 349 350 350 350 349 350 350 350 351 350 350 351 350
335 336 335 335 335 335 336 335 336 336 336 337 337 339 340 340 340 340 339 339 340 340 340 340 339 340 340 340 340 340 340 340 340 341 341 341 342 342 343 344 344 344 346 347 346 344 344 346 347 347 347 346 345 345 345 345 344 345 345 346 347 347 348 348 349 349 349 350 350 350 350 350 350 350 350 350 349 349 348 349 350 350 350 350 349
334 335 335 335 335 335 336 336 336 336 336 337 337 338 338 339 340 340 340 340 341 341 340 340 339 340 341 340 339 339 339 339 339 340 340 341 341 342 343 344 345 345 344 345 346 345 344 345 346 346 346 346 346 345 347 346 345 345 346 348 348 348 349 349 349 349 350 350 350 350 351 351 351 351 350 350 350 349 349 349 349 349 349 350 350
334 335 335 335 334 335 335 335 336 336 336 337 337 337 338 339 339 340 340 340 340 340 340 340 339 339 339 339 338 337 338 338 339 339 340 340 341 341 342 343 344 345 345 345 346 345 344 344 344 344 346 346 347 346 347 347 346 346 346 346 347 348 349 349 348 348 349 350 349 350 350 352 351 351 351 351 351 352 352 351 350 349 349 350 351
334 334 334 333 333 333 333 333 333 333 334 336 337 337 338 338 339 339 340 339 340 339 340 340 339 339 338 338 337 338 338 339 339 339 339 339 340 340 341 342 343 345 345 345 345 345 344 343 343 343 344 346 347 347 347 347 346 345 345 344 344 346 348 347 346 346 348 349 349 349 349 350 351 351 352 352 352 351 351 351 350 349 350 351 351
334 334 332 332 332 332 331 331 331 330 331 333 335 336 337 338 338 339 339 340 340 340 340 341 341 340 340 339 339 340 339 339 339 339 339 338 339 339 339 341 342 343 345 345 344 343 343 343 342 342 343 345 347 348 348 348 347 346 346 346 345 345 346 346 345 345 347 348 349 348 349 350 351 351 351 351 350 349 349 349 349 349 349 350 350
334 333 332 332 331 331 331 331 331 330 331 332 334 335 336 336 337 338 339 339 340 340 341 342 342 342 341 340 340 340 339 339 338 338 338 338 338 338 338 339 340 341 343 344 344 343 342 342 342 342 343 345 347 348 348 348 348 348 348 348 346 345 345 346 346 346 347 348 348 349 349 350 351 351 350 350 349 349 349 348 349 348 348 349 350
334 334 333 334 334 333 333 331 331 330 330 332 334 336 335 335 336 337 338 339 339 340 340 341 341 342 341 341 340 340 339 338 338 338 338 338 337 337 337 337 338 339 341 343 344 344 343 343 343 343 343 345 346 347 348 348 349 349 348 347 346 346 346 346 346 345 345 346 347 349 349 350 350 349 349 348 349 349 350 350 350 350 349 349 350
335 335 335 336 336 335 334 333 331 330 331 332 334 336 335 335 336 336 337 338 339 339 339 339 340 340 340 340 339 339 339 338 338 338 338 338 338 337 337 337 337 338 340 342 343 344 343 343 343 343 344 344 345 346 346 347 347 347 347 346 346 346 346 346 345 344 343 344 346 346 349 350 350 349 348 350 351 351 352 352 351 351 350 350 350
331 332 334 336 335 335 334 333 331 331 332 333 334 336 336 336 335 335 336 337 338 338 338 338 338 338 339 339 338 339 339 338 338 339 339 339 338 337 337 337 337 338 339 341 342 343 343 343 343 343 344 344 344 344 344 345 345 346 346 346 346 346 346 345 344 343 344 344 345 346 348 349 349 350 350 350 351 352 352 353 352 351 351 351 351
328 329 330 333 334 334 333 332 331 331 333 334 334 335 336 335 334 335 336 337 338 338 337 337 337 338 338 338 338 339 339 339 340 340 340 340 339 338 338 337 337 338 338 340 342 342 342 343 343 343 344 343 343 343 343 344 344 344 345 345 345 345 345 344 343 342 343 344 345 347 347 348 348 350 350 349 350 350 351 352 352 352 351 351 351
328 328 329 331 332 332 332 331 331 331 333 334 332 331 332 333 334 334 335 336 336 336 337 336 336 337 337 337 338 338 338 339 339 340 341 340 340 340 339 339 338 338 338 339 341 341 342 342 342 342 342 342 342 342 343 343 343 344 344 344 344 344 343 343 343 343 343 344 345 346 347 348 348 350 350 349 348 349 350 352 352 351 351 351 351
328 328 328 329 330 331 330 330 331 332 332 332 329 328 330 333 333 334 333 333 334 335 336 337 337 337 337 337 337 337 337 338 338 338 339 339 340 340 340 340 339 339 339 339 340 341 341 341 342 342 341 341 341 341 342 342 342 343 344 343 343 343 343 343 343 343 344 344 346 346 347 347 348 350 350 349 349 348 348 351 352 352 352 352 351
329 329 328 328 328 330 330 330 331 332 331 329 328 328 330 331 331 332 332 333 334 334 335 337 337 337 337 337 337 338 337 338 337 337 338 338 339 340 340 340 340 339 339 339 340 340 340 340 340 340 340 340 341 341 341 342 343 343 343 342 342 343 343 343 344 343 343 345 346 347 347 347 348 349 349 349 349 348 347 349 352 353 353 353 351
328 329 329 329 328 329 329 329 331 332 330 328 328 329 330 331 331 332 332 332 334 335 335 336 336 337 337 337 338 338 338 338 338 338 338 338 339 340 340 340 340 340 339 339 339 339 340 340 339 340 340 340 340 341 341 342 342 342 343 342 342 343 343 343 344 343 343 344 346 346 346 346 347 348 349 349 349 347 345 345 347 349 351 352 352
328 329 329 329 328 328 329 330 331 332 330 328 327 327 329 330 330 332 333 333 334 335 336 336 336 337 337 338 339 339 340 340 339 339 339 339 339 340 339 340 339 339 340 340 340 340 339 340 340 340 340 340 340 340 341 342 342 342 342 342 342 343 343 343 343 344 343 344 346 347 346 347 347 348 348 349 348 347 346 344 344 345 348 350 351
327 329 328 328 327 327 329 330 330 331 330 327 326 325 327 329 330 331 334 334 335 335 336 338 337 337 338 338 339 339 341 341 340 340 340 340 340 340 340 340 339 339 340 340 340 341 340 340 339 340 340 340 340 341 342 342 342 342 341 342 342 343 342 343 343 343 344 345 346 346 346 347 347 347 347 347 347 347 346 344 343 343 345 348 351
327 329 328 328 327 327 329 331 330 329 329 327 325 324 325 327 329 331 333 334 335 336 338 339 338 338 337 337 338 340 341 341 340 341 341 340 341 340 339 339 339 340 340 341 341 341 340 340 340 340 340 340 340 342 343 343 343 342 341 342 342 343 342 343 343 343 344 345 346 345 345 346 346 345 346 347 347 347 346 343 343 342 342 345 347
326 328 328 328 328 328 329 331 329 327 328 328 325 324 324 325 328 330 331 333 335 337 338 338 337 337 337 337 339 341 342 342 341 341 341 341 341 340 339 339 339 340 340 341 341 340 340 340 340 340 340 340 341 342 343 343 343 341 341 341 342 343 343 343 343 344 345 345 346 345 345 345 345 345 346 347 347 347 345 343 343 343 342 342 343
327 328 328 328 328 328 328 330 329 325 327 328 325 324 325 325 327 329 329 330 333 334 334 335 336 336 337 337 338 340 341 341 341 341 341 340 340 339 339 338 338 339 340 340 341 341 340 340 340 340 341 341 342 343 343 343 342 341 342 342 344 345 344 344 344 344 345 345 345 345 345 346 346 346 346 346 347 347 346 344 344 342 341 341 341
327 328 329 328 329 329 328 329 329 325 325 327 325 324 324 324 326 328 327 327 329 329 328 330 332 333 334 336 337 338 338 338 339 340 340 338 337 337 337 337 337 338 339 339 339 340 340 340 340 341 342 342 342 342 342 342 341 341 342 343 345 345 345 344 344 343 344 345 346 346 346 346 346 346 345 345 347 347 346 345 344 342 340 339 339
327 327 328 328 328 329 328 329 329 326 325 326 327 326 325 325 326 327 325 324 324 325 325 325 326 327 328 331 334 335 337 337 337 338 339 338 338 337 336 336 337 337 339 339 339 340 340 340 341 341 342 342 342 343 342 341 341 342 344 344 345 345 343 343 343 343 344 346 347 346 347 346 346 345 345 345 346 346 346 345 344 342 341 340 339
327 325 325 325 325 328 329 328 327 327 326 326 328 327 325 325 327 326 323 321 321 321 322 322 321 321 323 324 326 329 333 336 336 337 337 337 336 336 335 335 336 337 337 338 338 339 340 340 341 341 341 341 342 342 342 341 341 344 345 345 344 344 343 341 341 343 346 347 346 346 347 346 345 344 345 345 344 344 345 345 344 343 341 340 339
Wind_Speed
19 18 17 16 15 14 14 14 16 17 18 17 16 15 14 14 13 13 13 12 12 12 11 10 10 11 12 14 14 14 15 16 15 15 15 14 15 17 19 20 19 18 19 20 20 19 19 20 20 20 20 19 19 19 18 18 18 17 17 17 16 16 16 15 15 15 15 14 14 14 13 13 13 12 12 11 11 10 10 10 10 10 10 10 10
20 19 18 17 16 15 14 14 15 18 19 18 17 16 15 15 14 14 14 14 13 12 12 11 11 10 11 13 14 15 16 16 16 16 16 16 16 17 20 21 20 20 20 20 21 21 20 20 20 21 21 21 20 20 19 19 19 18 18 18 18 17 17 16 16 16 16 15 15 15 14 14 14 13 13 13 13 12 12 12 12 12 11 12 12
22 21 20 19 18 18 16 15 16 17 20 20 18 17 16 16 16 15 16 16 14 13 13 13 12 10 11 12 12 14 16 17 17 16 15 16 17 19 21 23 22 21 20 21 22 23 22 21 21 21 21 21 21 20 20 20 20 19 19 19 19 18 18 18 17 17 17 16 16 16 15 15 15 15 14 14 14 14 14 13 13 13 13 13 13
23 23 22 22 21 21 19 18 17 17 20 21 19 18 17 17 17 17 17 17 16 15 14 14 13 12 11 11 11 12 15 17 18 18 17 17 18 20 23 25 25 24 22 22 23 23 23 22 21 21 21 21 21 21 21 21 21 21 21 20 20 20 20 19 19 19 18 18 17 17 17 17 16 16 16 15 15 15 15 15 15 15 14 14 14
25 25 25 25 24 23 23 21 19 18 19 20 20 19 18 18 19 19 19 18 18 17 16 16 15 14 12 12 12 12 14 16 18 18 18 18 19 21 24 26 27 26 25 24 24 24 24 23 23 22 21 21 22 22 22 22 22 22 22 22 21 21 21 21 20 20 20 19 19 19 19 18 17 17 17 16 16 16 16 16 16 16 15 15 15
28 27 28 28 27 26 26 24 22 20 20 21 21 21 20 19 20 21 20 19 19 18 17 17 17 15 14 13 12 11 12 15 17 18 19 19 19 21 24 26 28 28 28 27 26 26 25 24 24 23 22 22 22 22 23 23 23 23 24 23 23 23 22 22 22 22 21 21 21 20 20 19 19 18 18 18 17 17 17 17 17 17 17 16 16
31 30 30 29 30 29 28 27 24 22 22 23 23 22 21 20 20 21 22 21 21 20 19 18 17 17 15 14 13 12 11 13 15 18 20 20 20 22 24 26 28 29 28 28 29 29 28 27 25 24 24 23 23 23 23 23 24 24 24 25 24 24 24 24 23 23 23 22 22 22 21 21 20 20 19 19 19 18 18 18 18 18 18 17 17
34 34 33 31 31 31 31 29 27 25 25 25 25 25 23 23 22 22 23 23 23 22 22 20 19 18 17 15 14 14 13 13 14 17 20 21 21 22 24 26 28 29 29 29 30 31 30 30 28 26 25 25 24 23 24 24 24 25 25 25 26 25 25 25 25 25 25 24 24 23 23 22 22 22 21 21 21 20 20 20 20 20 20 19 19
36 36 36 34 32 32 32 31 29 27 27 27 28 27 25 24 25 24 24 24 24 24 23 22 21 19 18 17 16 16 16 15 14 15 19 21 21 21 23 25 26 28 29 29 30 31 31 31 30 28 27 27 27 26 25 25 24 25 25 25 26 26 26 26 27 27 27 26 26 25 25 25 24 24 23 23 23 22 22 23 22 22 22 21 21
38 37 36 35 33 32 32 33 32 29 28 29 28 28 27 26 27 26 25 25 25 25 24 22 21 21 20 19 18 18 18 18 16 15 18 21 22 22 23 24 25 26 28 29 29 30 30 30 30 30 29 29 29 29 28 27 26 26 26 26 26 27 27 28 28 28 29 28 28 27 27 27 26 26 25 25 24 24 24 24 24 24 24 23 23
42 40 37 36 34 33 33 34 33 31 29 29 29 29 29 29 29 28 27 26 26 26 24 21 22 23 23 20 18 19 20 20 19 18 19 21 22 22 23 25 25 26 26 27 28 29 29 29 29 30 30 30 30 30 30 30 29 29 28 28 27 27 28 28 29 29 30 30 30 30 29 29 28 28 27 27 26 25 25 25 25 25 25 24 24
40 40 39 37 36 35 34 34 34 32 30 30 31 31 30 31 31 30 29 28 27 27 25 23 23 23 23 23 21 20 21 23 22 22 22 23 23 23 24 26 27 27 27 27 27 28 29 29 29 30 30 30 31 31 31 31 31 31 31 30 30 29 29 29 30 30 31 31 31 32 31 31 30 30 29 28 28 27 26 26 26 25 25 25 24
37 37 39 39 38 36 36 35 34 33 33 32 32 30 29 30 31 30 30 29 28 28 27 23 19 18 19 18 19 21 22 24 26 25 25 26 26 26 25 26 27 29 29 29 29 29 29 29 30 30 30 30 30 31 31 31 32 32 33 33 33 32 31 30 30 31 31 32 32 32 32 32 32 31 31 30 29 28 28 27 26 26 25 25 25
36 36 37 39 39 38 37 37 36 35 34 33 32 31 29 30 30 30 29 29 30 29 28 22 16 16 13 6 11 20 21 23 27 28 28 28 28 29 29 27 27 28 29 29 30 31 30 30 30 30 31 31 30 30 31 31 31 31 32 34 34 34 33 33 32 32 32 32 32 33 33 33 33 33 32 32 31 30 30 29 28 27 26 26 25
36 36 37 38 39 39 39 38 37 36 35 33 32 31 30 30 31 32 29 28 28 27 28 26 21 16 8 3 5 9 10 15 23 28 30 30 30 29 30 31 30 28 27 27 29 30 30 30 30 31 31 31 30 30 30 30 30 29 30 31 33 34 34 34 34 34 34 33 33 33 33 34 34 34 34 33 33 32 31 30 30 29 28 27 27
34 35 36 37 39 41 41 40 39 37 36 34 34 33 33 33 33 33 30 26 25 26 27 28 25 17 6 3 3 2 3 8 14 23 28 29 31 31 31 32 33 32 30 29 29 29 30 30 31 31 32 32 32 31 31 31 30 29 29 29 30 32 33 33 34 34 35 34 35 34 34 34 34 35 35 35 34 34 33 32 31 31 30 29 28
31 32 34 34 37 40 38 37 38 38 37 36 35 34 34 34 34 34 33 30 27 24 24 26 28 26 16 7 4 3 3 5 6 11 19 25 29 31 32 33 34 34 34 34 33 31 31 31 31 31 31 32 32 33 33 33 32 31 31 31 31 31 32 32 33 33 34 35 35 35 35 35 35 35 35 35 35 34 34 33 32 32 31 30 30
28 33 34 31 32 33 31 32 34 36 37 36 35 33 33 34 34 34 35 36 31 23 22 24 27 30 29 22 15 9 5 4 4 4 8 17 24 27 31 33 34 36 36 36 35 35 34 33 33 33 32 32 32 32 32 33 33 33 33 33 33 33 32 32 33 33 33 34 34 35 36 36 37 36 36 35 35 34 34 33 33 32 31 31 30
24 31 33 31 29 29 30 33 34 33 33 33 33 33 32 31 32 33 35 35 31 26 24 24 23 26 31 32 29 22 10 4 3 2 3 7 15 20 24 27 31 34 36 38 37 37 37 36 36 36 35 35 34 34 34 34 34 34 34 34 34 34 34 34 33 33 33 32 33 33 34 35 36 36 37 36 36 35 35 34 33 32 32 31 31
19 24 28 30 28 27 28 32 34 33 31 30 31 33 33 31 31 33 34 32 31 31 30 25 23 25 28 30 33 28 18 13 9 4 1 2 6 11 16 19 23 27 32 36 38 38 38 38 39 38 38 38 37 37 37 37 37 37 36 36 35 35 35 35 34 33 32 32 32 32 32 32 33 34 35 35 35 35 34 33 32 32 31 31 30
17 20 23 24 23 23 24 27 31 31 30 29 28 31 32 31 31 32 32 32 33 34 33 29 27 27 25 26 28 24 21 23 19 10 6 6 4 4 9 11 14 21 26 30 34 36 38 39 40 40 40 39 39 39 39 39 39 39 38 38 36 35 35 35 34 33 33 32 32 32 31 31 31 32 33 33 33 33 32 31 31 31 30 30 30
17 19 23 23 20 20 20 22 25 26 26 26 26 28 31 31 30 30 30 31 32 34 34 33 32 31 28 25 23 20 16 16 18 17 13 11 8 6 8 9 9 15 21 24 27 30 34 37 38 39 40 41 40 40 39 39 38 39 39 39 38 37 36 36 35 34 33 33 33 32 32 32 31 31 31 32 32 32 31 30 30 30 30 30 29
16 18 22 22 19 18 17 17 19 21 22 22 23 25 27 28 27 27 27 28 30 32 34 35 34 32 31 29 27 25 21 17 19 21 16 11 9 7 10 14 12 16 20 21 22 24 27 32 34 36 38 40 40 39 39 39 38 39 39 39 39 39 38 38 37 36 35 34 33 32 32 32 31 31 31 31 31 31 31 30 30 30 30 29 29
13 16 19 21 19 19 19 18 16 17 19 20 21 23 25 26 26 26 27 29 30 31 32 34 34 33 32 32 31 31 30 27 25 24 20 18 14 8 11 14 11 16 23 21 22 23 24 27 30 32 33 35 37 37 38 39 39 39 38 38 38 38 39 38 38 38 37 37 34 33 32 32 31 31 31 31 31 32 32 31 30 30 30 29 29
12 13 16 19 20 22 24 22 20 19 21 22 24 26 27 26 27 28 30 31 32 32 32 32 33 34 34 33 33 32 32 32 29 26 24 23 17 11 14 15 10 13 18 18 19 21 23 26 27 28 29 31 32 34 34 35 36 36 35 35 35 35 36 36 37 38 38 38 36 33 32 31 31 31 31 31 32 32 33 33 32 31 30 29 29
12 11 11 13 16 19 21 23 23 23 24 25 25 26 26 27 27 28 29 31 33 33 32 33 35 37 37 34 33 33 32 32 31 30 28 25 20 16 14 13 12 12 13 15 16 15 17 22 24 25 27 28 30 30 31 32 33 33 33 33 33 32 33 34 35 36 36 36 35 33 32 31 30 31 31 31 32 33 33 33 33 32 31 30 29
14 14 13 14 17 18 19 21 23 25 26 26 26 27 28 29 30 29 28 30 32 33 33 34 35 37 37 34 33 33 33 33 32 33 34 31 27 24 18 10 8 9 8 11 15 17 19 20 21 24 25 26 27 27 28 29 30 31 30 30 30 30 30 31 31 32 32 32 32 32 31 30 30 30 30 31 31 32 32 32 32 32 31 30 30
15 16 15 16 17 18 19 21 24 27 29 29 28 29 29 31 32 32 32 31 31 33 33 33 35 36 36 35 34 34 34 36 36 35 35 35 31 29 25 16 9 6 5 7 9 13 19 19 20 23 25 25 26 27 26 26 26 26 25 26 27 27 27 27 27 27 27 28 29 30 30 29 30 30 30 30 31 31 32 32 32 32 31 30 30
13 14 14 15 16 17 19 22 24 26 29 30 30 29 30 31 33 34 34 33 32 34 33 33 35 35 35 36 36 36 35 36 37 37 36 35 34 32 30 26 17 8 5 6 6 7 11 15 16 18 22 23 25 26 26 25 23 22 22 24 25 26 26 25 25 26 26 26 27 28 28 29 29 29 29 29 30 30 31 31 31 31 31 30 29
13 13 14 14 15 16 19 21 23 25 27 30 30 30 30 30 33 34 34 33 33 34 34 33 34 33 34 36 36 36 36 35 36 38 37 35 35 34 33 31 26 18 10 6 8 10 12 14 16 17 19 21 21 22 22 22 20 19 20 22 23 25 26 26 26 26 26 26 26 26 26 27 28 28 28 28 28 29 30 31 30 30 30 30 30
13 13 14 15 15 16 17 19 22 24 26 28 29 30 29 30 32 33 34 34 34 35 35 34 35 34 34 35 35 35 37 36 37 39 38 36 36 35 33 31 30 27 20 10 7 12 16 17 18 18 18 17 17 18 19 18 16 15 17 19 21 22 23 24 24 24 24 24 23 24 25 26 27 27 27 27 27 27 29 30 32 32 31 30 30
13 13 13 14 15 17 17 18 21 23 25 27 28 29 30 30 31 33 33 34 34 35 35 35 34 34 33 34 34 35 36 36 37 39 38 37 37 35 34 32 30 29 26 18 9 12 20 22 20 19 18 15 15 17 17 17 16 15 17 18 19 19 20 21 21 21 22 22 23 24 25 26 27 27 27 27 27 28 29 30 32 32 32 30 29
13 12 13 14 15 17 18 19 22 24 25 26 26 28 30 31 32 33 33 33 34 35 34 34 33 33 33 34 34 35 35 35 37 38 38 37 36 35 33 32 31 28 26 23 15 13 20 25 24 24 23 20 20 20 19 19 18 18 19 20 20 20 20 21 22 22 23 23 24 25 25 26 26 27 28 28 28 29 30 30 31 31 31 31 30
13 12 13 15 16 18 20 22 23 25 26 26 26 26 28 31 32 33 33 32 32 32 32 32 32 32 32 33 34 35 35 36 37 38 38 37 35 34 34 33 32 30 29 28 21 15 18 22 23 24 24 23 24 24 22 22 22 21 21 21 21 21 22 22 22 23 23 24 24 25 26 26 26 27 28 28 29 29 29 30 31 32 32 32 31
14 14 14 16 18 20 22 23 25 26 27 27 27 27 28 30 32 32 32 31 30 30 30 31 31 31 31 33 34 35 35 34 36 37 37 36 35 34 35 34 33 31 30 30 26 20 18 20 20 22 22 22 24 25 25 24 23 23 23 22 21 22 22 22 22 23 23 22 22 22 23 24 24 25 26 27 27 28 28 29 29 30 31 31 31
16 16 17 18 19 21 23 24 26 28 28 28 27 27 27 28 29 30 30 30 30 30 31 32 32 30 31 32 34 36 35 33 35 36 36 35 34 34 35 35 33 31 30 31 30 27 22 19 20 24 24 24 25 26 25 23 22 22 22 22 22 23 23 22 22 23 23 22 22 21 21 21 22 23 24 25 26 27 28 28 27 27 27 28 29
17 18 20 20 21 22 24 25 27 28 28 27 26 27 26 24 25 27 28 29 29 29 30 31 31 31 32 33 34 36 36 34 35 36 36 35 35 34 34 34 33 32 31 29 31 31 26 22 22 24 24 23 24 25 23 22 21 21 22 22 22 22 23 22 23 24 24 23 23 23 22 21 22 22 22 22 22 23 24 24 23 23 23 24 25
19 20 21 21 22 23 24 25 27 28 27 26 24 24 24 23 22 23 25 26 27 28 28 29 30 30 31 33 34 35 36 35 36 37 36 36 35 35 35 34 33 32 30 29 30 30 29 27 26 24 23 22 23 23 23 22 21 20 21 22 22 22 23 24 25 25 24 23 23 23 23 22 22 21 20 20 19 19 20 20 19 19 20 21 22
19 20 22 22 22 23 25 26 27 27 27 25 22 21 22 22 22 22 23 25 26 26 26 27 29 30 31 32 33 35 37 37 37 38 37 35 35 36 37 35 32 30 29 29 29 28 27 26 25 24 24 23 22 23 23 21 19 20 21 21 21 22 23 24 26 25 23 22 23 23 23 22 22 21 20 19 18 18 18 19 17 17 18 19 20
17 19 22 24 24 23 25 26 27 27 25 22 21 21 22 21 19 19 21 22 25 28 28 28 29 31 32 34 35 36 39 40 40 40 39 36 35 35 36 36 33 30 29 28 28 27 26 24 23 24 23 21 21 22 22 18 17 21 24 22 21 23 24 23 23 22 22 22 22 21 22 22 22 21 20 20 18 17 16 17 17 16 17 18 18
16 18 20 23 24 24 25 25 24 25 23 21 22 23 23 22 21 20 20 21 23 27 30 30 30 31 33 35 37 39 41 43 44 45 43 40 37 35 35 35 33 30 29 28 27 25 24 22 22 21 19 18 20 21 20 20 22 24 24 20 20 22 22 21 22 21 21 21 21 20 21 21 21 20 19 18 17 15 13 14 16 16 16 16 16
16 17 19 21 23 23 23 23 22 21 20 22 24 24 23 23 24 23 22 23 23 24 27 30 31 32 34 36 38 40 42 45 47 48 47 45 42 40 37 36 36 33 30 28 27 26 24 22 21 20 16 17 22 23 23 25 26 24 21 18 19 21 18 16 19 22 21 20 19 20 21 21 20 19 17 17 16 13 10 11 13 14 14 15 14
17 19 20 20 21 22 22 22 21 19 19 22 25 26 26 26 26 25 24 24 24 24 25 28 31 33 35 36 37 39 41 45 47 49 49 48 46 44 41 38 38 37 34 31 29 28 25 23 22 21 18 19 25 25 24 26 25 23 22 20 20 19 15 11 11 16 18 17 17 19 20 20 20 19 18 17 16 12 9 9 10 11 12 13 14
17 18 18 18 19 20 20 20 19 18 19 23 25 26 29 30 30 29 28 26 25 24 25 27 30 33 35 36 37 38 40 43 46 46 47 47 47 47 45 41 39 39 39 38 35 32 30 26 23 22 22 24 26 25 24 25 24 22 22 21 21 20 17 14 12 14 16 14 13 15 18 20 18 18 19 18 16 13 10 9 10 10 11 12 13
16 15 14 14 16 18 18 18 16 17 19 22 24 26 29 32 31 29 28 27 24 23 24 26 28 30 32 34 36 37 38 41 42 43 42 43 45 47 46 44 41 40 40 41 40 38 37 33 28 27 28 28 27 27 28 26 23 21 20 20 21 21 19 18 20 22 19 14 12 13 17 19 18 18 19 17 15 13 10 9 9 10 10 11 12
17 15 13 12 13 15 16 15 15 16 19 21 24 26 29 33 32 28 25 24 22 21 22 24 25 28 30 31 33 33 34 36 38 40 40 39 40 43 45 44 42 41 40 41 41 40 38 36 34 33 34 33 31 30 29 25 23 21 20 21 21 21 21 21 22 22 18 14 13 12 14 17 17 17 17 16 14 12 9 8 8 7 8 9 11
18 18 14 11 11 12 13 13 13 15 18 21 24 26 29 33 33 29 26 23 19 18 18 18 21 24 26 27 28 29 30 32 35 38 39 38 38 39 40 41 40 40 40 41 42 41 39 37 37 36 35 34 32 29 26 24 22 20 19 20 20 18 18 18 18 16 14 13 14 12 11 12 14 15 16 16 14 12 10 8 7 7 6 7 9
17 18 14 9 9 10 11 10 12 15 17 20 24 26 28 33 34 31 30 25 17 10 10 12 14 16 18 20 22 26 28 30 32 35 37 36 35 35 36 36 35 35 36 39 41 42 41 38 36 35 33 31 29 27 25 23 21 19 17 17 17 14 13 12 12 13 12 11 15 17 13 9 10 13 14 15 14 13 11 10 9 8 7 7 8
16 15 12 9 8 10 10 10 11 13 16 19 23 25 27 31 33 32 31 29 23 19 17 14 10 8 8 7 10 16 20 23 27 32 33 29 26 27 28 28 29 29 31 33 36 38 38 37 35 33 31 29 28 26 22 19 18 17 16 17 16 15 12 8 7 11 13 13 16 20 15 9 9 11 11 12 13 13 12 11 10 8 6 6 7
14 12 11 9 9 10 10 9 10 12 14 16 20 23 25 29 30 29 29 29 28 25 23 23 25 24 20 14 6 3 11 16 18 21 23 22 21 22 21 21 21 22 25 27 29 31 33 32 32 31 29 29 27 23 20 17 15 15 16 18 17 15 14 11 8 9 12 14 17 19 15 9 9 10 9 8 9 11 12 11 10 8 6 5 6
11 11 11 10 10 11 11 10 9 11 13 14 18 21 22 26 27 27 27 28 30 29 26 26 31 34 33 30 24 15 5 9 13 16 17 18 18 19 18 18 17 19 24 26 26 26 28 29 29 29 28 27 23 19 18 16 14 14 14 15 15 15 16 15 12 8 6 8 14 18 15 10 10 11 11 6 3 6 11 12 10 9 8 6 6
Wind_Direction
231 230 228 230 235 241 250 258 258 250 242 236 235 238 243 245 246 250 252 249 246 246 246 245 246 245 240 238 237 237 242 248 247 245 246 242 228 217 214 212 211 211 210 208 208 206 202 203 204 204 207 208 209 212 216 218 220 223 225 226 227 227 227 227 227 226 224 224 224 225 227 229 232 235 237 238 238 240 240 241 243 246 249 250 252
233 233 232 233 236 237 242 252 257 252 246 243 242 243 243 244 249 254 258 258 256 255 256 256 256 253 246 241 240 239 241 245 248 249 250 247 236 225 217 215 215 213 212 211 211 211 209 208 209 210 210 211 211 214 217 220 222 224 227 228 229 231 231 231 231 231 231 230 229 229 229 231 233 235 236 237 238 241 241 242 244 246 249 251 253
234 235 236 236 236 236 236 242 250 250 245 245 246 248 249 250 253 258 263 265 263 261 260 259 260 262 256 248 243 240 240 243 246 249 250 247 240 231 220 216 217 216 214 213 213 214 214 213 214 215 216 216 216 217 219 222 224 226 229 230 231 233 233 233 234 234 234 233 233 232 232 233 234 235 237 238 239 241 242 243 244 246 248 250 253
237 238 239 239 237 236 234 235 241 243 241 242 244 247 251 254 256 258 263 264 264 261 260 260 262 266 260 251 249 245 243 243 244 246 248 247 244 236 223 218 218 218 217 216 216 217 218 218 218 219 220 221 221 222 223 225 227 228 230 232 233 235 236 236 236 236 236 236 236 235 235 236 237 237 238 240 241 243 244 244 244 245 247 249 252
242 243 243 242 242 241 238 236 238 239 239 240 241 243 246 251 254 255 257 259 260 261 260 261 263 263 257 255 255 251 245 243 243 244 245 247 246 238 226 221 221 220 219 219 219 220 221 222 222 222 223 224 225 227 228 229 230 231 232 234 236 236 238 239 239 240 239 239 239 239 239 239 240 241 241 242 243 244 246 247 246 246 248 250 252
246 247 246 244 244 244 243 240 239 239 239 240 240 241 241 245 250 253 255 256 257 260 260 263 264 260 255 256 259 256 247 242 244 244 243 246 245 237 229 225 224 224 222 221 223 225 225 226 226 227 227 227 229 230 232 233 235 236 236 237 238 239 240 241 242 242 242 242 242 242 242 242 242 243 244 245 246 247 248 249 249 249 249 250 252
248 248 248 245 245 245 244 242 240 238 239 239 239 240 240 239 243 249 253 255 255 257 258 259 261 258 253 254 258 258 250 246 248 246 243 244 243 238 233 230 227 226 226 224 226 228 229 230 231 231 232 232 233 233 235 236 237 238 239 240 241 241 242 243 244 244 245 245 245 245 244 244 245 245 246 247 248 249 250 251 251 252 252 253 254
247 247 247 246 246 246 246 244 240 238 239 239 237 238 239 237 239 243 248 252 253 255 256 255 254 253 251 250 255 256 252 252 252 247 242 242 242 238 236 233 229 229 229 227 227 229 231 233 234 235 236 236 237 238 238 239 240 240 241 243 243 244 244 244 245 245 246 246 247 246 246 247 247 246 247 248 249 250 250 251 252 254 255 256 257
250 247 245 245 245 246 247 245 242 239 239 239 238 237 238 238 237 239 244 247 250 252 253 251 249 249 249 249 252 252 250 252 254 249 243 243 243 238 235 233 231 231 233 232 231 231 233 234 236 237 238 239 240 241 242 242 243 243 243 245 245 246 246 246 247 247 247 248 248 248 248 249 249 249 250 250 250 251 252 253 255 256 257 259 261
252 250 247 245 244 245 246 245 243 240 239 239 238 237 237 238 237 238 241 243 246 250 251 252 254 254 252 250 251 252 250 251 251 247 242 243 243 240 238 235 234 234 234 236 236 235 236 237 238 239 240 241 242 244 245 245 246 246 246 246 247 248 249 248 248 249 250 250 250 250 251 252 252 253 253 254 254 254 255 257 258 259 260 262 264
252 249 246 245 245 245 246 244 242 240 238 237 236 234 234 235 236 238 240 242 245 249 249 252 257 257 254 252 253 254 253 252 249 245 242 242 242 241 240 238 235 235 236 237 239 240 240 240 240 241 242 242 243 245 247 248 248 249 249 249 249 250 251 251 251 251 252 252 252 253 255 256 256 257 257 258 258 259 260 261 262 263 264 265 266
252 250 245 243 244 244 244 241 240 239 237 236 234 232 231 232 234 237 239 240 244 247 246 245 248 250 252 253 255 255 253 252 250 245 242 242 243 244 241 238 237 237 237 238 240 242 243 244 244 244 245 245 245 246 248 249 250 251 251 251 252 252 252 253 253 254 254 255 255 256 257 258 259 259 260 260 261 261 262 263 264 265 266 267 267
254 253 247 243 241 241 241 238 237 238 238 238 237 234 232 233 234 236 238 238 241 244 242 238 236 241 248 256 263 264 259 252 250 246 241 241 243 246 244 241 239 239 240 241 242 243 244 245 246 247 247 247 247 247 248 250 251 252 252 253 253 253 253 254 255 255 256 256 257 258 258 259 260 260 261 261 261 262 262 263 264 265 266 267 267
257 254 249 244 240 237 236 235 235 236 238 238 236 234 233 233 233 233 235 237 240 243 240 231 224 231 236 251 274 272 264 253 250 247 241 239 240 243 245 244 242 241 241 242 243 243 244 244 245 247 248 249 249 248 249 251 252 253 254 254 254 254 254 255 255 257 257 258 258 259 259 260 261 261 262 262 262 263 262 263 264 265 266 267 267
257 251 246 243 240 237 234 233 234 234 235 234 231 231 233 235 233 232 233 235 238 240 238 232 224 222 215 189 248 265 264 247 243 243 239 237 238 239 242 242 241 242 241 240 241 242 243 244 244 246 248 249 250 249 250 251 253 255 256 257 257 256 256 256 256 256 257 259 260 260 261 261 262 263 263 263 264 264 264 264 264 265 266 267 267
254 246 242 242 242 239 235 233 233 233 233 230 229 231 233 233 232 231 230 230 234 236 236 233 224 212 187 169 198 199 250 236 232 238 237 236 238 238 239 240 241 243 242 240 241 241 242 243 244 246 248 250 251 251 251 252 254 256 258 259 259 259 259 259 258 258 257 258 260 261 262 262 263 264 265 265 266 266 266 266 266 266 267 267 268
258 251 245 244 242 240 236 233 233 232 231 229 231 234 234 233 232 230 228 228 231 233 234 232 226 219 209 195 175 177 234 224 222 241 236 232 236 238 238 239 240 242 242 242 242 243 244 244 246 247 249 251 252 253 253 254 256 257 257 259 260 261 261 261 261 261 261 261 261 262 262 263 264 265 266 266 267 268 267 268 268 268 268 268 269
264 253 247 243 239 239 237 235 235 232 230 230 232 234 234 233 232 230 229 230 230 230 230 230 228 226 222 221 226 229 221 193 198 250 244 235 236 237 238 238 239 240 242 243 243 244 245 247 248 249 250 251 252 253 254 255 256 257 258 260 260 262 262 262 263 263 264 264 265 265 264 264 264 265 266 267 268 268 269 269 269 270 270 270 270
266 255 250 247 244 245 242 239 237 235 231 229 231 235 234 233 234 233 231 230 227 225 229 228 223 226 228 228 233 236 231 191 188 233 261 247 239 238 240 240 239 240 240 241 242 243 245 247 248 250 251 252 252 253 254 256 257 259 260 261 262 262 263 264 264 265 265 266 267 268 268 266 265 265 265 267 268 268 269 270 270 271 271 271 270
262 258 255 251 250 253 250 242 236 234 232 231 236 241 239 236 238 237 234 233 229 227 230 227 218 224 228 228 232 235 231 228 233 233 219 270 254 245 246 246 244 244 242 241 241 241 244 246 247 249 250 251 252 254 256 257 258 260 261 262 262 263 263 263 264 265 266 267 268 270 270 269 268 267 266 267 268 269 269 271 271 272 272 273 272
268 260 254 250 248 250 249 241 235 234 234 239 245 247 245 242 239 238 237 238 234 230 231 229 224 226 226 225 229 231 232 237 242 245 238 246 262 252 247 248 250 250 248 245 244 243 243 246 247 247 249 250 252 254 256 257 257 258 259 261 262 263 263 263 264 265 266 267 269 271 271 271 270 269 268 267 268 269 270 271 271 272 273 274 274
280 265 250 246 246 245 245 244 241 240 241 246 248 247 248 247 245 244 242 240 236 232 233 232 230 230 228 224 221 216 220 235 241 238 233 236 246 252 245 238 242 254 254 251 250 248 247 246 247 247 247 249 251 253 254 256 256 257 258 259 260 262 263 264 264 265 265 267 269 270 271 270 270 268 268 268 268 269 270 270 271 272 273 274 274
279 267 251 247 251 248 248 252 250 246 249 252 251 250 252 253 254 254 250 246 243 240 238 237 235 232 229 226 222 216 214 219 225 224 221 226 238 251 249 240 241 254 259 259 258 256 253 250 248 248 248 249 250 252 253 254 256 257 259 261 261 261 263 264 264 264 265 267 268 269 268 269 269 267 266 267 268 268 268 270 271 272 273 273 273
282 272 259 253 257 261 262 265 258 249 250 255 259 262 263 263 264 263 260 257 252 246 242 239 236 232 228 226 227 225 221 220 222 220 217 223 230 243 250 242 241 251 256 259 259 257 256 255 253 252 251 251 252 252 253 255 256 259 261 262 262 261 262 263 264 264 264 266 268 268 267 267 267 267 266 266 266 266 267 269 270 271 271 272 271
292 281 270 262 266 271 272 268 261 257 259 262 266 266 267 269 269 268 266 262 257 250 243 239 238 235 232 229 229 229 226 226 227 224 223 225 226 238 250 245 239 251 257 256 256 258 258 257 257 256 255 254 254 255 256 257 259 261 263 264 264 263 262 262 264 264 265 265 266 267 267 266 266 267 266 265 264 264 265 267 268 268 268 270 270
301 295 292 285 281 278 273 269 268 271 272 272 272 270 270 272 271 268 264 261 258 253 246 243 243 241 238 234 231 231 231 230 228 228 229 229 226 228 240 244 241 248 256 254 252 255 257 258 259 259 258 257 257 257 258 260 261 263 265 267 266 265 264 264 264 265 265 265 265 265 265 264 264 265 265 264 263 263 264 266 266 265 266 268 269
304 303 299 293 292 288 279 274 275 277 278 278 276 274 273 271 269 265 260 257 255 251 249 246 242 239 239 239 236 232 231 232 230 230 231 231 229 227 228 231 241 245 249 251 249 248 252 258 262 260 260 260 260 261 262 262 263 264 266 267 267 266 266 265 265 265 265 265 265 264 263 262 263 263 263 262 262 262 262 262 262 263 265 268 268
304 301 297 291 291 290 282 276 276 278 279 279 277 274 271 268 265 263 260 257 251 248 249 245 238 239 242 241 238 235 232 232 232 231 230 230 228 228 227 222 225 239 241 245 249 252 254 256 260 264 264 264 266 266 266 265 264 263 264 265 266 267 267 267 267 267 267 266 264 263 262 262 262 261 261 261 262 261 259 258 260 263 265 266 265
304 299 297 294 291 289 285 282 281 281 280 279 277 274 271 267 263 260 259 257 250 246 248 247 244 245 245 241 237 235 234 231 231 231 230 230 229 229 230 226 221 220 235 247 245 246 251 249 254 267 272 272 272 270 267 264 263 262 263 265 268 269 269 269 269 269 269 269 267 265 262 261 261 259 258 259 260 259 257 259 262 263 263 263 264
310 307 305 302 299 295 292 291 288 286 283 280 278 274 268 265 263 258 257 255 248 245 247 247 246 244 242 240 237 236 236 233 232 233 231 231 231 230 231 229 225 220 218 240 252 244 244 247 250 261 274 279 278 276 270 264 261 260 263 268 271 273 274 274 274 273 273 272 270 267 263 261 259 257 256 258 259 259 259 259 260 261 262 262 262
314 315 315 314 314 311 306 302 299 294 291 287 284 278 269 262 258 256 253 250 244 243 243 244 244 241 237 238 237 236 237 236 234 235 232 231 232 231 230 229 226 224 219 219 251 249 240 242 248 257 270 277 278 276 270 262 256 256 260 266 270 274 276 276 277 276 275 273 271 268 265 262 259 259 260 261 261 261 260 259 260 262 262 261 260
318 320 323 323 323 321 318 314 308 303 299 293 288 283 274 264 257 253 252 248 242 241 242 241 241 238 235 236 237 238 239 236 234 234 233 232 232 232 231 229 227 225 221 216 231 250 243 242 249 254 258 265 271 270 264 257 251 249 253 259 264 268 269 272 275 275 275 275 274 272 269 266 265 264 263 262 261 261 261 261 261 260 260 259 259
322 323 325 326 325 323 321 317 313 308 302 295 289 283 276 268 261 255 253 249 243 241 240 239 239 237 236 237 239 242 241 236 234 234 232 232 231 231 231 229 227 225 219 216 223 246 250 248 251 253 252 256 263 262 257 253 249 247 251 258 263 263 265 271 275 274 273 274 275 275 274 271 269 266 264 263 262 261 260 259 258 257 256 256 258
321 320 321 324 325 325 321 317 314 309 303 297 292 286 277 269 262 257 254 250 245 242 239 237 237 235 235 235 236 238 238 235 235 234 233 231 228 229 229 228 227 224 218 217 219 233 249 249 250 255 255 254 256 256 253 250 250 253 258 262 265 264 265 270 274 274 274 274 274 274 272 271 267 265 264 263 262 260 258 257 255 254 254 254 256
316 314 314 318 323 324 321 318 315 310 305 299 294 290 281 271 261 256 254 250 247 242 238 237 237 234 231 231 232 234 234 233 234 234 234 232 228 226 227 227 227 225 220 218 218 223 239 246 247 251 250 247 248 251 251 251 254 257 261 263 264 264 265 267 269 271 272 273 273 270 268 267 265 263 262 261 261 259 258 257 256 255 254 253 254
313 311 310 312 316 319 319 318 317 313 308 304 300 295 287 276 264 257 255 254 250 245 240 238 238 235 231 230 231 233 234 232 232 233 232 231 228 226 225 225 227 227 223 220 219 222 232 241 245 247 246 245 247 251 253 253 255 256 258 262 265 267 267 266 266 269 271 273 273 268 266 266 266 266 265 264 264 263 261 259 257 256 255 253 252
318 316 314 313 313 316 317 317 317 316 312 309 306 302 296 284 270 264 261 258 254 248 242 240 239 237 235 232 231 233 233 231 230 230 230 228 227 225 224 224 225 226 225 221 220 223 229 236 243 247 247 246 248 253 255 254 254 254 256 261 265 268 270 268 268 271 273 274 272 269 266 266 268 270 270 270 270 267 263 259 256 254 252 250 249
328 325 323 319 315 314 316 318 320 319 317 316 312 309 304 292 276 269 265 260 256 252 249 246 244 241 239 236 234 233 232 230 229 229 228 226 225 223 224 225 224 222 221 220 219 221 226 232 239 244 245 245 248 253 255 253 250 253 259 264 266 268 269 271 272 272 273 272 271 268 265 265 268 272 272 273 274 270 263 257 254 251 246 245 246
335 333 328 323 319 317 318 320 323 322 319 318 319 320 318 307 289 275 268 262 257 253 251 249 247 244 242 240 238 235 234 232 231 231 230 226 224 223 223 224 223 219 216 216 217 218 222 229 234 239 242 245 248 252 254 251 249 254 259 262 264 266 268 270 272 273 273 272 269 266 263 263 266 268 268 272 276 276 266 254 249 247 242 241 244
335 331 327 325 322 321 323 323 326 329 325 323 331 337 335 328 311 292 280 271 263 259 257 253 249 247 246 243 240 238 238 237 235 234 233 228 224 223 222 223 222 217 213 213 214 215 219 224 229 234 239 242 245 248 250 246 242 248 253 252 256 265 270 271 272 273 273 270 267 265 263 263 264 266 268 271 275 279 272 254 243 241 239 239 242
331 326 323 324 323 324 325 324 330 339 338 335 341 343 339 335 327 312 297 286 275 266 260 256 253 250 250 249 245 241 240 240 239 238 237 233 228 224 221 219 218 215 212 210 210 212 216 221 227 230 233 238 241 241 240 237 235 243 251 249 250 260 268 270 270 270 269 266 264 264 264 263 263 265 265 265 268 277 276 256 239 234 235 237 241
335 329 323 321 323 324 325 325 330 341 343 340 342 343 340 333 326 316 302 289 282 272 260 256 255 254 254 253 250 246 244 242 241 240 240 237 232 229 225 219 216 212 207 207 208 210 214 219 224 225 226 235 239 236 237 240 241 244 247 242 244 253 259 263 268 269 266 262 259 259 261 261 261 260 256 255 258 265 267 252 236 231 232 235 239
332 326 321 319 321 323 324 325 329 335 339 341 343 343 340 335 327 318 306 290 281 275 263 256 255 256 257 255 253 250 246 242 240 240 240 238 235 232 229 224 221 215 208 205 207 208 212 219 224 223 222 233 241 239 239 244 244 243 244 240 240 243 241 242 261 269 267 261 253 252 257 258 256 252 250 249 249 249 252 249 239 233 233 231 232
322 319 319 319 319 322 323 324 328 335 339 342 343 342 341 340 333 322 311 296 281 271 265 260 257 257 256 256 257 254 245 239 236 235 237 238 236 233 230 227 225 222 216 213 211 209 211 216 222 223 222 230 239 240 239 240 241 242 243 242 238 236 234 231 239 254 263 262 251 248 255 257 250 246 247 246 240 239 246 248 240 233 231 228 225
322 319 318 316 317 322 322 323 330 337 339 340 341 342 345 346 340 328 315 302 285 270 266 264 260 258 257 259 262 256 242 234 231 230 232 234 234 232 230 227 225 224 222 220 218 216 215 215 218 223 226 228 233 238 240 239 238 238 237 236 236 235 232 232 240 251 257 258 250 243 247 250 246 242 247 244 234 235 243 242 238 235 230 225 221
332 328 320 310 316 324 323 323 329 335 338 341 342 345 349 351 348 340 328 312 291 275 270 267 264 263 262 263 263 252 235 226 226 226 226 228 227 225 225 224 222 222 221 220 220 220 220 219 221 226 230 229 232 241 246 242 238 239 238 238 237 236 236 242 250 255 255 258 259 242 235 244 242 238 244 242 230 231 236 232 232 234 228 225 222
339 337 328 309 311 324 327 325 328 334 338 342 345 347 351 356 356 352 345 332 304 280 275 275 274 274 272 269 260 243 227 222 223 223 222 221 219 216 216 217 218 218 218 219 220 221 221 222 225 229 233 235 238 244 248 246 245 248 249 247 246 244 244 247 250 249 249 255 250 229 223 243 238 229 239 241 229 226 226 220 219 221 220 223 224
345 344 336 313 302 316 328 329 329 335 340 345 348 349 355 1 3 1 0 356 347 334 321 307 292 286 284 274 251 230 221 222 222 221 219 215 209 205 207 210 212 214 217 219 222 222 223 224 227 231 235 238 241 245 247 248 251 253 249 243 240 234 229 229 232 235 238 239 229 218 219 237 229 223 235 237 228 224 221 216 216 216 217 218 217
351 351 343 322 297 302 319 329 329 334 342 348 349 351 359 6 7 9 10 9 13 24 24 15 9 359 340 301 240 218 213 213 213 211 208 200 192 190 195 199 202 206 213 219 221 223 224 225 227 231 234 237 240 243 245 245 246 244 231 222 221 215 204 203 220 228 227 224 219 215 218 231 229 221 223 224 225 226 222 217 213 209 212 217 212
353 355 350 337 311 297 307 322 327 330 338 346 347 350 1 9 11 16 20 19 19 24 30 40 46 45 42 41 47 179 198 199 200 199 194 186 181 183 186 189 192 199 208 214 218 222 224 226 228 231 234 238 241 241 240 236 233 228 217 215 219 210 196 197 211 219 223 227 222 213 211 226 229 209 197 202 218 222 217 213 212 212 217 225 220
353 354 355 348 331 312 305 311 325 330 330 337 345 349 360 10 15 21 28 31 29 26 26 37 45 47 47 46 45 50 96 186 199 200 199 196 193 195 197 196 198 207 214 215 216 219 220 222 226 229 232 235 235 232 229 224 219 217 215 220 220 205 196 205 210 205 213 230 224 212 207 215 216 196 182 176 191 217 216 211 209 214 221 226 225